Location: Ammerl�gen
(47.2167°N, 9.6000°E)
Time: 08:20:24
(UTC+00:00)

Iridium 4 Rocket - Pass Details

Date: 31 July 2021
Orbit: 584 x 904 km, 86.9° (Epoch: 18 September)

Event Time Altitude Azimuth Distance (km) Brightness Sun altitude
Rises 00:04:08 0° 6° (N) 3,401 8.3 -24.0°
Reaches altitude 10° 00:06:54 10° 19° (NNE) 2,504 7.2 -23.9°
Maximum altitude 00:11:39 27° 76° (ENE) 1,653 5.4 -23.8°
Enters shadow 00:15:15 15° 123° (ESE) 2,205 5.7 -23.7°
